When you browse on this site, cookies collect data to enhance your experience and personalize the content and advertising you see.
Visit our Privacy Policy to learn more. By continuing to use the site, you agree to this use of cookies and data.
  • In Portugal
  • List of Countries
  • For 7 days
  • Water Temperature
  • Satellite Maps
  • Weather Map
  • Weather Widgets
  • user-avatar
    Login

    Hourly Weather Sysoevka

    Today, 18 February, Monday

    Time Temperature Precipitation Wind Pressure Humidity
    00:00 -6°C° 0 mm 2 mps 747 mmHg 65%
    01:00 -6°C° 0 mm 2 mps 747 mmHg 66%
    02:00 -6°C° 0 mm 1 mps 747 mmHg 68%
    03:00 -6°C° 0 mm 1 mps 748 mmHg 69%
    04:00 -7°C° 0 mm 1 mps 748 mmHg 71%
    05:00 -7°C° 0 mm 1 mps 748 mmHg 72%
    06:00 -7°C° 0 mm 1 mps 749 mmHg 74%
    07:00 -6°C° 0 mm 1 mps 749 mmHg 69%
    08:00 -4°C° 0 mm 1 mps 749 mmHg 65%
    09:00 -4°C° 0 mm 1 mps 750 mmHg 60%
    10:00 -4°C° 0 mm 2 mps 750 mmHg 53%
    11:00 -2°C° 0 mm 2 mps 750 mmHg 45%
    12:00 +1°C° 0 mm 2 mps 750 mmHg 38%
    13:00 +1°C° 0 mm 3 mps 749 mmHg 36%
    14:00 +1°C° 0 mm 3 mps 749 mmHg 34%
    15:00 +2°C° 0 mm 3 mps 749 mmHg 31%
    16:00 +2°C° 0 mm 2 mps 749 mmHg 36%
    17:00 +1°C° 0 mm 2 mps 749 mmHg 40%
    18:00 -2°C° 0 mm 2 mps 749 mmHg 44%
    19:00 -2°C° 0 mm 2 mps 750 mmHg 46%
    20:00 -3°C° 0 mm 2 mps 750 mmHg 48%
    21:00 -3°C° 0 mm 2 mps 750 mmHg 51%
    22:00 -3°C° 0 mm 2 mps 750 mmHg 61%
    23:00 -4°C° 0 mm 2 mps 750 mmHg 71%

    Tomorrow, 19 February, Tuesday

    Time Temperature Precipitation Wind Pressure Humidity
    00:00 -4°C° 0 mm 2 mps 750 mmHg 81%
    01:00 -4°C° 0 mm 2 mps 750 mmHg 84%
    02:00 -2°C° 0 mm 1 mps 750 mmHg 87%
    03:00 -2°C° 0 mm 1 mps 750 mmHg 91%
    04:00 -2°C° 0 mm 1 mps 750 mmHg 90%
    05:00 -2°C° 0 mm 1 mps 750 mmHg 89%
    06:00 -2°C° 0 mm 1 mps 749 mmHg 88%
    07:00 -2°C° 0 mm 1 mps 749 mmHg 83%
    08:00 -2°C° 0 mm 0 mps 749 mmHg 78%
    09:00 -1°C° 0 mm 0 mps 749 mmHg 73%
    10:00 0°C° 0 mm 0 mps 749 mmHg 66%
    11:00 +1°C° 0 mm 0 mps 749 mmHg 59%
    12:00 +3°C° 0 mm 0 mps 749 mmHg 52%
    13:00 +4°C° 0 mm 1 mps 748 mmHg 50%
    14:00 +4°C° 0 mm 1 mps 748 mmHg 47%
    15:00 +4°C° 0 mm 1 mps 747 mmHg 45%
    16:00 +3°C° 0 mm 1 mps 747 mmHg 50%
    17:00 +2°C° 0 mm 1 mps 747 mmHg 54%
    18:00 +1°C° 0 mm 1 mps 747 mmHg 59%
    19:00 +1°C° 0 mm 1 mps 747 mmHg 59%
    20:00 0°C° 0 mm 1 mps 747 mmHg 60%
    21:00 0°C° 0 mm 1 mps 747 mmHg 61%
    22:00 0°C° 0 mm 1 mps 747 mmHg 60%
    23:00 -1°C° 0 mm 1 mps 747 mmHg 59%

    Day after tomorrow, 20 February, Wednesday

    Time Temperature Precipitation Wind Pressure Humidity
    00:00 -1°C° 0 mm 1 mps 748 mmHg 58%
    01:00 -1°C° 0 mm 1 mps 747 mmHg 58%
    02:00 -2°C° 0 mm 1 mps 747 mmHg 57%
    03:00 -2°C° 0 mm 1 mps 747 mmHg 57%
    04:00 -2°C° 0 mm 1 mps 747 mmHg 58%
    05:00 -3°C° 0 mm 1 mps 747 mmHg 60%
    06:00 -3°C° 0 mm 1 mps 747 mmHg 61%
    07:00 -3°C° 0 mm 1 mps 748 mmHg 59%
    08:00 -2°C° 0 mm 1 mps 748 mmHg 57%
    09:00 -2°C° 0 mm 1 mps 749 mmHg 55%
    10:00 -1°C° 0 mm 1 mps 749 mmHg 53%
    11:00 -2°C° 0 mm 2 mps 749 mmHg 51%
    12:00 -1°C° 0 mm 2 mps 749 mmHg 48%
    13:00 -1°C° 0 mm 2 mps 749 mmHg 47%
    14:00 -1°C° 0 mm 3 mps 749 mmHg 45%
    15:00 0°C° 0 mm 3 mps 749 mmHg 43%
    16:00 -1°C° 0 mm 2 mps 749 mmHg 46%
    17:00 -2°C° 0 mm 2 mps 749 mmHg 49%
    18:00 -1°C° 0 mm 1 mps 750 mmHg 52%
    19:00 -1°C° 0 mm 1 mps 750 mmHg 53%
    20:00 -2°C° 0 mm 1 mps 750 mmHg 54%
    21:00 -2°C° 0 mm 1 mps 751 mmHg 55%
    22:00 -2°C° 0 mm 1 mps 751 mmHg 56%
    23:00 -3°C° 0 mm 1 mps 751 mmHg 57%

    21 February, Thursday

    Time Temperature Precipitation Wind Pressure Humidity
    00:00 -3°C° 0 mm 1 mps 751 mmHg 58%
    01:00 -3°C° 0 mm 1 mps 751 mmHg 60%
    02:00 -3°C° 0 mm 1 mps 751 mmHg 63%
    03:00 -3°C° 0 mm 1 mps 751 mmHg 65%
    04:00 -4°C° 0 mm 1 mps 751 mmHg 70%
    05:00 -4°C° 0 mm 1 mps 751 mmHg 75%
    06:00 -4°C° 0 mm 1 mps 751 mmHg 79%
    07:00 -3°C° 0 mm 1 mps 751 mmHg 73%
    08:00 -4°C° 0 mm 2 mps 751 mmHg 67%
    09:00 -4°C° 0 mm 2 mps 751 mmHg 61%
    10:00 -2°C° 0 mm 2 mps 751 mmHg 52%
    11:00 -1°C° 0 mm 3 mps 751 mmHg 43%
    12:00 0°C° 0 mm 3 mps 751 mmHg 33%
    13:00 +1°C° 0 mm 3 mps 750 mmHg 33%
    14:00 +1°C° 0 mm 3 mps 750 mmHg 33%
    15:00 +1°C° 0 mm 3 mps 750 mmHg 33%
    16:00 +1°C° 0 mm 2 mps 750 mmHg 37%
    17:00 +1°C° 0 mm 1 mps 750 mmHg 40%
    18:00 0°C° 0 mm 1 mps 750 mmHg 44%
    19:00 0°C° 0 mm 1 mps 750 mmHg 45%
    20:00 0°C° 0 mm 1 mps 750 mmHg 45%
    21:00 -1°C° 0 mm 1 mps 750 mmHg 45%
    22:00 -1°C° 0 mm 1 mps 750 mmHg 47%
    23:00 -3°C° 0 mm 2 mps 749 mmHg 48%

    22 February, Friday

    Time Temperature Precipitation Wind Pressure Humidity
    00:00 -3°C° 0 mm 2 mps 749 mmHg 50%
    01:00 -3°C° 0 mm 2 mps 749 mmHg 51%
    02:00 -4°C° 0 mm 2 mps 749 mmHg 53%
    03:00 -4°C° 0 mm 2 mps 749 mmHg 55%
    04:00 -4°C° 0 mm 2 mps 748 mmHg 55%
    05:00 -4°C° 0 mm 2 mps 748 mmHg 56%
    06:00 -5°C° 0 mm 3 mps 748 mmHg 56%
    07:00 -4°C° 0 mm 3 mps 749 mmHg 53%
    08:00 -4°C° 0 mm 4 mps 749 mmHg 50%
    09:00 -3°C° 0 mm 4 mps 749 mmHg 47%
    10:00 -2°C° 0 mm 5 mps 749 mmHg 46%
    11:00 -2°C° 0 mm 5 mps 750 mmHg 44%
    12:00 -2°C° 0 mm 6 mps 750 mmHg 43%
    13:00 -2°C° 0 mm 6 mps 750 mmHg 42%
    14:00 -1°C° 0 mm 5 mps 749 mmHg 40%
    15:00 -1°C° 0 mm 5 mps 749 mmHg 38%
    16:00 -1°C° 0 mm 5 mps 750 mmHg 40%
    17:00 -2°C° 0 mm 4 mps 750 mmHg 42%
    18:00 -2°C° 0 mm 3 mps 750 mmHg 43%
    19:00 -3°C° 0 mm 2 mps 751 mmHg 45%
    20:00 -3°C° 0 mm 2 mps 752 mmHg 46%
    21:00 -4°C° 0 mm 2 mps 752 mmHg 47%
    22:00 -2°C° 0 mm 1 mps 752 mmHg 49%
    23:00 -3°C° 0 mm 1 mps 753 mmHg 51%

    23 February, Saturday

    Time Temperature Precipitation Wind Pressure Humidity
    00:00 -3°C° 0 mm 1 mps 753 mmHg 53%
    01:00 -3°C° 0 mm 1 mps 753 mmHg 55%
    02:00 -4°C° 0 mm 1 mps 753 mmHg 57%
    03:00 -4°C° 0 mm 1 mps 753 mmHg 59%
    04:00 -6°C° 0 mm 0 mps 753 mmHg 60%
    05:00 -6°C° 0 mm 0 mps 753 mmHg 62%
    06:00 -6°C° 0 mm 0 mps 753 mmHg 63%
    07:00 -5°C° 0 mm 0 mps 753 mmHg 58%
    08:00 -4°C° 0 mm 0 mps 753 mmHg 53%
    09:00 -4°C° 0 mm 0 mps 753 mmHg 48%
    10:00 -2°C° 0 mm 0 mps 753 mmHg 41%
    11:00 0°C° 0 mm 0 mps 752 mmHg 33%
    12:00 +2°C° 0 mm 0 mps 752 mmHg 26%
    13:00 +2°C° 0 mm 0 mps 751 mmHg 25%
    14:00 +3°C° 0 mm 0 mps 751 mmHg 24%
    15:00 +3°C° 0 mm 0 mps 750 mmHg 23%
    16:00 +2°C° 0 mm 0 mps 750 mmHg 26%
    17:00 +1°C° 0 mm 0 mps 750 mmHg 30%
    18:00 -1°C° 0 mm 0 mps 750 mmHg 33%
    19:00 -1°C° 0 mm 0 mps 750 mmHg 33%
    20:00 0°C° 0 mm 1 mps 750 mmHg 34%
    21:00 0°C° 0 mm 1 mps 750 mmHg 34%
    22:00 0°C° 0 mm 1 mps 750 mmHg 34%
    23:00 -1°C° 0 mm 1 mps 749 mmHg 35%
    Show more